Location: Abenheim
(49.6761°N, 8.2839°E)
Time: 11:35:34
(UTC+00:00)

Daily predictions for brighter satellites

Satellite Brightness Start Highest point End
(mag) Time Altitude Azimuth Time Altitude Azimuth Time Altitude Azimuth
ARGOS 4.5 16:46:19 10° E 16:49:55 19° NE 16:53:33 10° NNE
SL-24 R/B 4.4 16:45:39 10° SSE 16:50:13 88° ENE 16:55:21 10° NNW
Cosmos 1626 Rocket 4.1 16:46:42 10° SSE 16:50:49 40° E 16:54:59 10° NNE
Cosmos 1092 Rocket 4.5 16:46:07 10° SSE 16:51:43 38° E 16:57:19 10° NNE
Cosmos 2263 Rocket 3.9 16:47:45 10° WSW 16:52:36 28° NW 16:57:28 10° NNE
Cosmos 923 Rocket 4.2 16:47:37 10° NNW 16:52:59 82° WSW 16:58:17 10° SSE
Cosmos 1898 Rocket 4.0 16:49:08 10° S 16:54:00 40° ESE 16:58:52 10° NE
CZ-4C R/B 2.9 16:52:17 10° NNE 16:55:29 81° WNW 16:58:42 10° SSW
TELKOM 3 2.6 16:54:00 10° W 16:56:07 82° N 16:58:22 10° E
Cosmos 1680 Rocket 3.5 16:52:00 10° NNW 16:57:17 86° ENE 17:02:30 10° SSE
Meteor 2-10 Rocket 4.2 16:54:41 10° NNW 17:00:01 62° W 17:05:06 10° S
Nadezhda 4 Rocket 4.0 16:54:13 10° S 17:00:21 69° E 17:06:30 10° NNE
CZ-4B R/B 2.3 17:01:03 10° NE 17:03:58 28° E 17:06:48 10° SSE
Landsat 5 3.6 17:01:20 10° N 17:05:12 70° WNW 17:08:59 10° SSW
MOS 1 Rocket 4.0 17:01:54 10° NE 17:05:38 28° E 17:09:22 10° SSE
CZ-2D R/B 3.6 17:02:38 10° SE 17:06:15 40° ENE 17:09:51 10° N
Cosmos-2242 3.8 17:04:59 10° N 17:08:46 29° ENE 17:12:32 10° SE
NOAA 11 4.5 17:04:52 10° S 17:10:22 76° WSW 17:15:54 10° NNW
NOSS 3-1 (C) 4.3 17:04:00 10° NW 17:11:23 81° SW 17:20:01 10° SE
COSMO-SKYMED 1 3.0 17:08:59 10° NNE 17:13:05 39° E 17:17:10 10° SSE
BREEZE-M DEB (TANK) 1.6 17:12:59 10° W 17:15:19 86° S 17:17:14 14° E
Cosmos 1937 Rocket 3.8 17:11:34 10° S 17:16:37 46° ESE 17:21:42 10° NNE
Aureole 3 3.1 17:13:33 10° NNW 17:16:39 64° W 17:19:35 10° S
Cosmos 1758 Rocket 4.3 17:13:36 10° SSE 17:17:33 32° E 17:21:34 10° NNE
Okean 1-7 Rocket 4.2 17:14:02 10° SSW 17:18:33 63° WNW 17:23:07 10° N
USA 290 2.5 17:17:50 10° NNW 17:20:55 43° ENE 17:23:58 10° SE
NOSS 2-1 (C) 2.8 17:21:05 10° SW 17:24:24 82° SE 17:27:19 14° NE
Cosmos 1833 Rocket 2.7 17:19:11 10° NNW 17:24:47 65° ENE 17:30:22 10° SE
CZ-4 R/B 4.4 17:22:08 10° SSE 17:26:13 60° ENE 17:30:20 10° N
Cosmos 2221 4.5 17:25:43 10° NNE 17:26:48 12° NE 17:26:48 12° NE
H-2A R/B 2.3 17:23:56 10° SE 17:28:44 43° ENE 17:33:40 10° N
Meteor 1-21 Rocket 4.3 17:24:38 10° SSW 17:30:10 84° W 17:35:50 10° N
H-2A R/B 2.6 17:25:59 10° N 17:30:21 62° WNW 17:34:35 10° SSW
NOSS 2-1 (D) 2.9 17:27:02 10° SW 17:30:21 86° NW 17:33:06 16° NE
Cosmos 1939 Rocket 3.2 17:26:54 10° S 17:30:58 73° WSW 17:35:00 10° NNW
Cosmos 2344 4.3 17:22:09 10° NW 17:31:13 82° NE 17:43:54 10° SE
Helios 1A Rocket 3.6 17:27:36 10° SE 17:31:18 32° ENE 17:35:01 10° N
USA 229 DEB 4.1 17:25:35 10° NW 17:32:52 81° SW 17:40:33 10° SE
USA 229 4.0 17:25:42 10° NW 17:32:58 81° SW 17:40:40 10° SE
Cosmos 389 Rocket 4.2 17:30:30 10° NNE 17:32:01 16° NE 17:32:01 16° NE
SeaSat 1 4.0 17:29:28 10° NNE 17:33:52 33° NW 17:38:14 10° WSW
Cosmos 1602 Rocket 3.5 17:29:56 10° S 17:34:17 80° E 17:38:43 10° NNE
CZ-3B R/B 2.0 17:31:55 10° WNW 17:34:27 75° SSW 17:41:34 10° SE
Cosmos 44 3.6 17:29:37 10° SW 17:34:28 69° NW 17:39:31 11° NE
CSL-04 DEB 4.3 17:30:53 10° NNE 17:35:02 82° ESE 17:39:03 10° SSW
Cosmos 2026 Rocket 4.0 17:29:31 10° S 17:35:34 62° E 17:41:45 10° NNE
Feng Yun 1-1 Rocket 4.3 17:30:47 10° SSE 17:36:17 86° WSW 17:41:59 10° NNW
SJ 16-02 2.8 17:33:31 10° SW 17:37:36 36° WNW 17:41:42 10° N
YAOGAN 1 2.7 17:36:05 10° SE 17:40:16 51° ENE 17:44:29 10° N
Cosmos 1689 Rocket 3.2 17:41:34 24° ESE 17:41:34 24° ESE 17:43:25 10° SSE
Cosmos 990 Rocket 4.1 17:35:47 10° SSW 17:40:59 76° WNW 17:46:12 10° NNE
Cosmos 1553 Rocket 4.1 17:35:12 10° N 17:41:29 54° ENE 17:47:39 10° SSE
SJ-11-01 4.5 17:37:37 10° SE 17:42:06 48° ENE 17:46:36 10° N
Aureole 3 Rocket 2.4 17:39:09 10° N 17:42:21 80° E 17:46:18 10° SSE
Cosmos 1844 Rocket 3.8 17:37:34 10° WSW 17:42:56 42° NW 17:48:19 10° NNE
COSMOS 2406 3.3 17:38:21 10° NNW 17:44:10 84° WSW 17:49:55 10° SSE
Cosmos 2082 Rocket 2.3 17:38:58 10° NNW 17:44:36 54° NE 17:50:10 10° SE
HJ-1C 4.0 17:47:04 28° ESE 17:47:55 33° ENE 17:50:59 10° N
Cosmos 1703 3.8 17:44:31 10° SSW 17:48:20 60° WNW 17:52:12 10° N
Meteor 1-27 4.2 17:42:50 10° N 17:48:22 56° ENE 17:53:49 10° SSE
NOSS 3-1 (A) 4.3 17:41:06 10° NW 17:48:31 78° SW 17:57:10 10° SSE
Cosmos 1825 Rocket 3.7 17:45:08 10° SSE 17:49:21 48° E 17:53:37 10° NNE
X-37B 2.4 17:46:55 10° WSW 17:49:40 27° SSW 17:51:36 15° SE
IRS-1C Rocket 4.1 17:44:32 10° SSE 17:49:48 88° WSW 17:55:06 10° NNW
deb Kosmos-1763 4.3 17:47:52 10° NNW 17:51:21 44° ENE 17:52:52 27° ESE
Cosmos 1812 Rocket 4.1 17:47:14 10° NNW 17:51:33 61° W 17:55:49 10° S
ISS -3.6 17:49:24 10° W 17:52:46 59° N 17:53:50 37° ENE
Okean O Rocket 3.9 17:52:09 10° SSW 17:55:55 27° W 17:59:43 10° NW
ATLAS 2AS CENTAUR R/B 4.2 17:49:37 10° WNW 17:56:13 28° N 18:00:54 16° NE
NOAA 15 4.5 17:52:05 10° SSE 17:57:20 78° ENE 18:02:39 10° NNW
ATLAS 5 CENTAUR R/B 3.8 17:55:11 10° NW 17:58:20 18° N 18:00:57 13° NNE
Iridium 4 Rocket 3.5 17:54:22 10° N 17:59:49 85° W 18:04:46 10° S
CZ-4 R/B 1.3 17:55:55 10° SSE 17:59:56 89° WSW 18:03:55 10° NNW
SKYMED 2 3.8 17:56:55 10° N 18:01:16 71° WNW 18:05:34 10° SSW
ERS-2 2.0 17:58:38 18° NNE 18:01:17 67° ESE 18:04:54 10° S
CSL-04 Rocket 3.7 17:58:59 10° SE 18:04:20 58° ENE 18:09:46 10° N
Okean-O 2.6 18:02:59 10° SSE 18:07:25 86° WSW 18:11:54 10° NNW
S3M 3.9 18:01:58 10° N 18:08:01 58° ENE 18:14:03 10° SSE
CZ-4C R/B 3.9 18:03:35 10° NW 18:08:39 25° N 18:11:46 19° NE
USA 234 3.8 18:05:52 24° ENE 18:09:31 47° N 18:15:43 10° WNW
Ariane Rocket 4.2 18:11:25 24° NE 18:11:25 24° NE 18:14:32 10° N
Cosmos 1340 4.0 18:08:24 10° SW 18:11:57 40° WNW 18:15:32 10° N
Cosmos 1346 Rocket 2.6 18:08:26 10° S 18:12:22 82° E 18:15:12 18° NNE
Cosmos 1655 Rocket 4.1 18:06:51 10° SSE 18:12:45 47° E 18:18:40 10° NNE
Cosmos 2278 Rocket 2.1 18:07:15 10° SSW 18:12:55 79° ESE 18:17:11 18° NNE
Cosmos 1953 Rocket 3.5 18:11:33 10° S 18:15:48 59° E 18:17:58 28° NNE
CZ-2C R/B 4.1 18:10:45 10° S 18:16:07 52° W 18:21:45 10° NNW
SWARM C 4.4 18:15:06 10° S 18:18:10 72° SE 18:18:10 72° SE
USA 281 4.5 18:17:58 21° NE 18:18:26 21° NE 18:23:04 10° N
SWARM A 4.0 18:15:12 10° S 18:18:31 84° E 18:18:52 69° NNE
SAR-Lupe-4 3.4 18:17:50 35° NNE 18:19:14 89° ESE 18:22:49 10° SSW
Cosmos 2292 Rocket 3.4 18:15:59 10° S 18:20:36 56° E 18:20:41 55° E
Cosmos 44 Rocket 3.7 18:18:28 10° S 18:23:06 43° ESE 18:23:19 43° ESE
NOSS 2-1 (E) 4.4 18:22:39 10° WSW 18:25:44 34° NW 18:26:47 28° N
DMSP B5D1-3 4.4 18:22:50 10° NNE 18:27:57 76° ESE 18:33:04 10° S
ARGOS 3.1 18:24:09 10° SSE 18:29:31 86° WSW 18:34:57 10° NNW
Meteor 2-2 Rocket 4.3 18:23:39 10° N 18:29:34 60° ENE 18:34:20 16° SSE
Cosmos 1869 3.1 18:26:11 10° N 18:30:06 80° E 18:30:11 79° E
NOSS 2-2 (D) 4.3 18:26:22 10° NW 18:31:27 62° NE 18:33:29 42° ESE
PSLV R/B 4.3 18:28:23 10° N 18:32:33 65° WNW 18:36:43 10° SSW
CZ-4B R/B 3.9 18:33:29 10° NNW 18:36:02 21° WNW 18:38:31 10° WSW
Cosmos 372 Rocket 4.1 18:31:20 10° SSW 18:36:33 76° WNW 18:39:58 22° NNE
Cosmos 468 4.5 18:32:12 10° NNW 18:37:29 84° WSW 18:41:13 20° SSE
CZ-2C R/B 2.7 18:33:46 20° NNE 18:37:37 60° E 18:43:10 10° S
Cosmos 494 Rocket 3.8 18:36:18 10° NNW 18:41:29 76° ENE 18:42:29 57° SE
Cosmos 2150 Rocket 3.8 18:40:37 10° SSW 18:45:44 70° ESE 18:45:59 69° E
Cosmos 1048 Rocket 4.1 18:41:20 10° NNW 18:46:28 73° WSW 18:49:36 24° S
Cosmos 909 Rocket 4.3 18:53:24 10° NNW 18:59:43 55° NE 19:00:09 54° ENE
SL-08 RB Rocket 4.1 18:59:19 31° SSW 19:01:18 59° W 19:05:44 10° NNW
Cosmos 2221 4.2 19:01:42 10° NNW 19:03:42 26° NNW 19:03:42 26° NNW
H-2A R/B 3.8 19:03:51 10° SSW 19:08:19 30° W 19:12:54 10° NNW
Cosmos 1125 Rocket 4.2 19:05:11 10° SSW 19:08:41 44° SSW 19:08:41 44° SSW
Cosmos 2298 Rocket 4.2 19:07:49 10° SSW 19:13:07 69° WNW 19:13:36 65° NNW
Cosmos 2266 Rocket 4.0 19:08:43 10° SSW 19:14:57 78° W 19:21:07 10° N
NOSS 2-2 (C) 4.5 19:14:13 10° NW 19:19:34 76° SW 19:20:07 71° S
Cosmos 2082 Rocket 3.9 19:23:31 10° NW 19:28:24 30° WSW 19:33:15 10° SSW
ISS -0.5 19:26:18 10° WNW 19:26:49 14° WNW 19:26:49 14° WNW
ATLAS 5 CENTAUR R/B 4.2 19:40:48 10° NNW 19:42:29 17° NNW 19:42:29 17° NNW
ATLAS 2AS CENTAUR R/B 3.8 19:42:20 10° NW 19:48:21 36° N 19:48:21 36° N
USA 234 3.6 19:53:13 56° NNW 19:53:13 56° NNW 19:58:32 10° WNW
Cosmos 2278 Rocket 4.1 19:53:02 10° W 19:57:40 25° NW 19:59:05 23° NNW
CZ-4C R/B 3.8 19:52:35 10° NW 19:56:58 35° N 19:56:58 35° N
USA 281 4.3 20:04:50 35° NNW 20:04:50 35° NNW 20:08:27 10° NNW
